CST,Max TemperatureF,Mean TemperatureF,Min TemperatureF,Max Dew PointF,MeanDew PointF,Min DewpointF,Max Humidity, Mean Humidity, Min Humidity, Max Sea Level PressureIn, Mean Sea Level PressureIn, Min Sea Level PressureIn, Max VisibilityMiles, Mean VisibilityMiles, Min VisibilityMiles, Max Wind SpeedMPH, Mean Wind SpeedMPH, Max Gust SpeedMPH,PrecipitationIn, CloudCover, Events, WindDirDegrees
2012-11-1,62,45,28,34,28,19,85,53,20,30.04,29.98,29.94,10,10,9,16,5,20,0.00,2,,264
2012-11-2,65,53,41,40,34,31,76,52,28,30.06,29.98,29.89,10,10,10,13,4,16,0.00,0,,314
2012-11-3,78,59,39,55,40,33,79,60,40,30.09,30.02,29.89,10,10,6,18,8,23,0.00,1,,39
2012-11-4,56,46,35,38,35,31,92,68,43,30.19,30.15,30.09,10,9,5,14,7,20,0.00,2,,351
2012-11-5,52,43,34,38,34,31,89,69,48,30.16,30.10,30.05,10,9,7,13,4,16,0.08,4,Rain,71
2012-11-6,50,45,40,45,42,36,100,86,71,30.06,29.98,29.93,10,5,1,9,2,13,0.09,8,Rain,304
2012-11-7,49,45,40,45,42,39,100,88,76,30.16,29.99,29.91,10,6,2,13,7,16,0.07,7,Rain,306
2012-11-8,57,44,31,43,37,31,100,76,51,30.28,30.22,30.16,10,5,0,7,2,9,0.00,0,Fog,126
2012-11-9,69,51,33,42,37,33,100,70,33,30.26,30.19,30.12,10,7,1,13,4,,0.00,0,,169
2012-11-10,74,59,43,52,43,37,83,59,35,30.25,30.18,30.14,10,10,10,16,9,21,0.00,0,,176
2012-11-11,72,62,52,54,46,40,71,55,39,30.21,30.13,30.05,10,10,6,25,13,37,0.24,2,Rain,167
2012-11-12,60,45,30,57,41,23,100,83,46,30.47,30.24,30.01,10,8,2,21,11,28,0.69,6,Rain,300
2012-11-13,50,38,26,29,25,23,92,64,36,30.54,30.48,30.44,10,10,9,12,4,15,0.00,0,,23
2012-11-14,51,40,29,30,27,24,82,62,41,30.47,30.40,30.33,10,10,10,12,5,15,0.00,0,,33
2012-11-15,55,41,26,33,29,24,92,67,41,30.38,30.34,30.30,10,10,7,9,4,13,0.00,0,,354
2012-11-16,57,43,29,33,29,27,92,63,33,30.44,30.40,30.35,10,8,4,10,5,14,0.00,0,,9
2012-11-17,60,44,28,34,31,25,92,64,36,30.49,30.43,30.39,10,9,5,8,2,10,0.00,0,,42
2012-11-18,65,47,28,37,32,27,96,62,28,30.44,30.38,30.33,10,9,5,8,1,12,0.00,0,,360
2012-11-19,67,50,32,39,34,30,89,59,29,30.35,30.27,30.17,10,10,6,6,1,8,0.00,2,,67
2012-11-20,68,59,50,47,43,39,83,63,42,30.17,30.12,30.05,10,10,9,15,4,17,0.00,5,,259
2012-11-21,64,53,41,46,43,38,96,72,48,30.24,30.20,30.13,10,7,2,13,5,17,0.00,0,,350
2012-11-22,68,51,33,45,36,32,96,64,32,30.23,30.18,30.10,10,5,0,14,4,18,0.00,0,Fog,201
2012-11-23,58,46,33,50,35,21,83,61,38,30.30,30.17,30.08,10,10,9,22,13,28,0.01,3,Rain,310
2012-11-24,40,32,24,22,20,19,81,63,44,30.35,30.27,30.16,10,10,10,14,6,17,0.00,0,,334
2012-11-25,58,41,24,25,23,20,88,52,24,30.15,30.07,29.99,10,10,10,15,6,20,0.00,0,,196
2012-11-26,61,52,41,48,39,29,93,75,41,30.23,30.13,30.07,10,7,2,14,6,,0.43,8,Rain,8
2012-11-27,41,34,28,37,32,27,92,85,70,30.38,30.32,30.20,10,7,4,17,9,22,0.02,6,Rain,9
2012-11-28,49,35,21,34,26,20,100,73,46,30.50,30.43,30.38,10,5,0,5,0,8,0.00,1,Fog,75
2012-11-29,59,41,23,32,27,22,96,66,30,30.42,30.34,30.27,10,8,2,13,4,16,0.00,0,,159
2012-11-30,61,47,33,42,35,28,82,62,42,30.30,30.25,30.18,10,10,10,16,6,18,0.00,0,,171